COSMOS 1275 DEB

Satellite information

Favourite Embed

Satellite Type and Status

DEBRISIN ORBIT

Key statistics

Satellite COSMOS 1275 DEB at a glance.

Uptime

16044

Days in orbit

Revolutions

≈ 14.8

Per day

Orbit

LEO

Low Earth Orbit

Inclination

83.0

Latest

Satellite identification and parameters

Extended collection of information and parameters for COSMOS 1275 DEB.

Object identification

Identified? True

Debris? True

Object name: COSMOS 1275 DEB

International designator: 1981-053GB

Object number (NORAD): 13481

Object ID (CCSDS): 13481

Country: COMMONWEALTH OF INDEPENDENT STATES (CIS)

Current information (Y/N): Y

RCS size: SMALL

Orbital parameters

Period: 97.446 minutes

Inclination: 82.9827 deg

SMA: 7014.618 km

Apoapsis: 647.181 km

Periapsis: 625.786 km

RAAN: 6.8502 deg

Eccentricy: 0.001525

Argument of periapsis: 291.5311 deg

Mean anomaly: 68.4276 deg

Mean motion: 14.77735474 rev/day

Mean motion (dot): 0.00023409 rev/day2

B* drag term: 0.0032482 1/REarth

Two-line elements (TLE)

Creation date: May 8, 2025, 3:01 a.m.

Reference frame: TEME

Reference center: EARTH

Epoch: May 7, 2025, 10:30 p.m. UTC

TLE line 0: 0 COSMOS 1275 DEB

TLE line 1: 1 13481U 81053GB 25127.93766027 .00023409 00000-0 32482-2 0 9990

TLE line 2: 2 13481 82.9827 6.8502 0015250 291.5311 68.4276 14.77735474207035

Live tracking on map

Real-time ground track for satellite COSMOS 1275 DEB.

In-orbit conjunctions

A list of the most updated potential collisions computed for object COSMOS 1275 DEB.

Target Orbit TCA Probability of collision Miss distance Type
CZ-6A DEB LEO 2024-12-07 14:28:57 0.0002150821 428.0 (m) DEBRIS
NOAA 17 DEB SSO 2024-06-16 10:12:47 0.000487514 18.0 (m) DEBRIS

Associated space launch

Navigation satellite providing location information for the Tsiklon-B navigation system

COSMOS 1275 DEB was lifted into orbit during the mission ‘Kosmos-3M | Parus 27’, on board a Kosmos-3M space rocket.

The launch took place on June 4, 1981, 3:41 p.m. from 132/2.

For more information about the launch, click the button.

Launch to space Kosmos-3M | Parus 27
Kosmos-3M | Parus 27

Agency: N/A

Status: Launch Successful

Launch date: June 4, 1981, 3:41 p.m. UTC

Rocket: Kosmos-3M

Launch pad: 132/2

Location: Plesetsk Cosmodrome, Russian Federation

...

Latest news about this satellite

There are no fresh news available about this satellite. Check back as we update our databases every day.


Newsletter sign-up

Weekly statistics, charts and insights to help you stay on top of the space industry.